This is the latest recevied weather packets stored in our database for station/object R1ZAAG-14. If no packets are shown the sender has not sent any weather packets the latest 10 day(s).
| Time | Temp. | Humidity | Pressure | Rain* | Wind** | Luminosity | Snow |
|---|---|---|---|---|---|---|---|
| 1777367431 | 1.67° C | 100% | 1019.8 hPa | - | - | - | - |
| 1777366534 | 1.67° C | 99% | 1019.6 hPa | - | - | - | - |
| 1777366529 | 1.67° C | 99% | 1019.6 hPa | - | - | - | - |
| 1777365637 | 1.11° C | 100% | 1019.7 hPa | - | - | - | - |
| 1777365628 | 1.11° C | 100% | 1019.7 hPa | - | - | - | - |
| 1777364733 | 1.67° C | 100% | 1019.3 hPa | - | - | - | - |
| 1777364727 | 1.67° C | 100% | 1019.3 hPa | - | - | - | - |
| 1777363832 | 1.11° C | 100% | 1019.3 hPa | - | - | - | - |
| 1777363827 | 1.11° C | 100% | 1019.3 hPa | - | - | - | - |
| 1777362932 | 1.11° C | 100% | 1019.2 hPa | - | - | - | - |
| 1777362926 | 1.11° C | 100% | 1019.2 hPa | - | - | - | - |
| 1777362031 | 1.67° C | 92% | 1019.1 hPa | - | - | - | - |
| 1777362025 | 1.67° C | 92% | 1019.1 hPa | - | - | - | - |
| 1777361130 | 1.67° C | 90% | 1019 hPa | - | - | - | - |
| 1777361125 | 1.67° C | 90% | 1019 hPa | - | - | - | - |
| 1777360230 | 1.11° C | 98% | 1019 hPa | - | - | - | - |
| 1777360224 | 1.11° C | 98% | 1019 hPa | - | - | - | - |
| 1777359328 | 1.11° C | 100% | 1019 hPa | - | - | - | - |
| 1777359323 | 1.11° C | 100% | 1019 hPa | - | - | - | - |
| 1777358429 | 1.11° C | 99% | 1018.8 hPa | - | - | - | - |
| 1777358423 | 1.11° C | 99% | 1018.8 hPa | - | - | - | - |
| 1777357532 | 0.56° C | 100% | 1018.8 hPa | - | - | - | - |
| 1777357522 | 0.56° C | 100% | 1018.8 hPa | - | - | - | - |
| 1777356626 | 0.56° C | 99% | 1018.7 hPa | - | - | - | - |
| 1777356622 | 0.56° C | 99% | 1018.7 hPa | - | - | - | - |
* Rain since midnight (hover to see other rain measurements)
** Current wind speed in m/s (hover to see current wind gust speed)